Location: LDNL
(36.4545°S, 141.6685°E)
Time: 23:27:58
(UTC+11:00)

Explorer 7 - All Passes

Search period start: 30 January 2023 00:00
Search period end: 09 February 2023 00:00
Orbit: 480 x 660 km, 50.3° (Epoch: 30 January)

Date Brightness Start Highest point End Pass type
(mag) Time Alt. Az. Time Alt. Az. Time Alt. Az.
30 Jan - 02:16:08 10° NW 02:20:29 59° NE 02:24:38 10° ESE visible
30 Jan - 03:57:21 10° W 04:00:58 26° SSW 04:04:26 10° SSE visible
30 Jan - 05:40:51 10° SSW 05:42:20 12° S 05:43:47 10° SSE visible
30 Jan - 07:21:49 10° SSW 07:23:59 14° SSE 07:26:07 10° SE daylight
30 Jan - 09:01:15 10° SW 09:04:59 48° SE 09:08:38 10° ENE daylight
30 Jan - 10:42:12 10° W 10:44:54 19° NW 10:47:36 10° N daylight
31 Jan - 00:39:33 10° NNE 00:41:37 13° NE 00:43:38 10° E night (unlit)
31 Jan - 02:17:01 10° NW 02:21:28 88° SW 02:25:41 10° SE visible
31 Jan - 03:58:57 10° WSW 04:02:10 20° SSW 04:05:15 10° SSE visible
31 Jan - 05:42:26 10° SSW 05:43:41 11° S 05:44:55 10° SSE visible
31 Jan - 07:22:35 10° SSW 07:25:16 17° SSE 07:27:54 10° ESE daylight
31 Jan - 09:02:11 10° SW 09:06:01 79° SE 09:09:46 10° NE daylight
31 Jan - 10:44:37 10° WNW 10:45:43 11° NW 10:46:49 10° NW daylight
01 Feb - 00:39:02 10° N 00:42:26 21° NE 00:45:44 10° E night (unlit)
01 Feb - 02:18:06 10° WNW 02:22:29 58° SW 02:26:39 10° SE visible
01 Feb - 04:00:39 10° WSW 04:03:24 16° SSW 04:06:04 10° SSE visible
01 Feb - 05:43:40 10° SSW 05:45:02 11° S 05:46:22 10° SSE visible
01 Feb - 07:23:22 10° SSW 07:26:30 22° SSE 07:29:33 10° ESE daylight
01 Feb - 09:03:12 10° WSW 09:07:00 62° NW 09:10:42 10° NE daylight
02 Feb - 00:39:13 10° NNW 00:43:18 33° NE 00:47:13 10° ESE night (unlit)
02 Feb - 02:19:21 10° WNW 02:23:32 40° SSW 02:27:32 10° SE visible
02 Feb - 04:02:23 10° SW 04:04:40 14° SSW 04:06:55 10° SSE visible
02 Feb - 05:44:38 10° SSW 05:46:22 12° S 05:48:04 10° SSE visible
02 Feb - 07:24:09 10° SW 07:27:39 30° SSE 07:31:03 10° E daylight
02 Feb - 09:04:22 10° WSW 09:07:54 36° NW 09:11:21 10° NNE daylight
03 Feb - 00:39:45 10° NNW 00:44:11 52° NE 00:48:26 10° ESE night (unlit)
03 Feb - 02:20:45 10° W 02:24:38 29° SSW 02:28:22 10° SSE visible
03 Feb - 04:04:06 10° SW 04:05:59 13° S 04:07:49 10° SSE visible
03 Feb - 05:45:28 10° SSW 05:47:40 14° SSE 05:49:49 10° SE visible
03 Feb - 07:24:58 10° SW 07:28:45 44° SSE 07:32:23 10° ENE daylight
03 Feb - 09:05:45 10° W 09:08:44 22° NW 09:11:39 10° N daylight
03 Feb - 23:03:37 10° NNE 23:05:18 12° NE 23:06:58 10° ENE night (unlit)
04 Feb - 00:40:32 10° NW 00:45:07 83° NE 00:49:29 10° SE night (unlit)
04 Feb - 02:22:16 10° WSW 02:25:47 22° SSW 02:29:09 10° SSE visible
04 Feb - 04:05:40 10° SSW 04:07:17 12° S 04:08:53 10° SSE visible
04 Feb - 05:46:13 10° SSW 05:48:56 17° SSE 05:51:33 10° ESE visible
04 Feb - 07:25:51 10° SW 07:29:46 69° SE 07:33:33 10° ENE daylight
04 Feb - 09:07:42 10° W 09:09:31 13° NW 09:11:17 10° NNW daylight
04 Feb - 23:02:47 10° N 23:06:04 19° NE 23:09:18 10° E night (unlit)
05 Feb - 00:41:30 10° WNW 00:46:05 66° SW 00:50:25 10° SE night (unlit)
05 Feb - 02:23:53 10° WSW 02:26:58 18° SSW 02:29:57 10° SSE visible
05 Feb - 04:06:59 10° SSW 04:08:36 12° S 04:10:12 10° SSE visible
05 Feb - 05:46:58 10° SSW 05:50:08 21° SSE 05:53:10 10° ESE visible
05 Feb - 07:26:49 10° SW 07:30:44 72° NW 07:34:29 10° NE daylight
05 Feb - 23:02:48 10° NNW 23:06:53 30° NE 23:10:48 10° ESE night (unlit)
06 Feb - 00:42:40 10° WNW 00:47:05 45° SSW 00:51:17 10° SE night (unlit)
06 Feb - 02:25:33 10° SW 02:28:12 15° SSW 02:30:46 10° SSE visible
06 Feb - 04:08:01 10° SSW 04:09:54 13° S 04:11:45 10° SSE visible
06 Feb - 05:47:44 10° SSW 05:51:17 28° SSE 05:54:40 10° E visible
06 Feb - 07:27:53 10° WSW 07:31:37 42° NW 07:35:11 10° NNE daylight
06 Feb - 23:03:13 10° NNW 23:07:43 47° NE 23:12:03 10° ESE night (unlit)
07 Feb - 00:43:59 10° W 00:48:08 33° SSW 00:52:06 10° SE night (unlit)
07 Feb - 02:27:12 10° SW 02:29:27 14° S 02:31:39 10° SSE visible
07 Feb - 04:08:52 10° SSW 04:11:11 14° SSE 04:13:25 10° SE visible
07 Feb - 05:48:31 10° SW 05:52:21 40° SSE 05:56:00 10° ENE visible
07 Feb - 07:29:09 10° WSW 07:32:25 25° NW 07:35:34 10° N daylight
07 Feb - 21:27:50 10° NE 21:28:50 11° NE 21:29:50 10° ENE visible
07 Feb - 23:03:54 10° NW 23:08:35 74° NE 23:13:05 10° SE visible
08 Feb - 00:45:25 10° W 00:49:14 25° SSW 00:52:52 10° SSE night (unlit)
08 Feb - 02:28:45 10° SSW 02:30:43 13° S 02:32:40 10° SSE visible
08 Feb - 04:09:39 10° SSW 04:12:24 17° SSE 04:15:04 10° ESE visible
08 Feb - 05:49:20 10° SW 05:53:21 61° SE 05:57:10 10° ENE visible
08 Feb - 07:30:49 10° W 07:33:09 15° NW 07:35:27 10° NNW daylight
08 Feb - 21:26:26 10° N 21:29:32 18° NE 21:32:37 10° E visible
08 Feb - 23:04:48 10° WNW 23:09:30 75° SW 23:14:01 10° SE visible
